Flag for Mexico Weather past 2 weeks in Mexicali, Baja California, Mexico

Now
80 °F

Sunny.


Feels Like: 78 °F
Forecast: 47 / 80 °F
Wind: 14 mph from Northeast

Location: Imperial County Airport

Current Time: Mar 6, 2015 at 12:18:10 PM

Latest Report: Mar 6, 2015 at 11:53 AM


Visibility: 10 mi

Pressure: 30.07 "Hg

Humidity: 13%

Dew point: 24 °F

Location of MexicaliLocation

Historic Weather in Mexicali — Graph

°F

Mexicali temperature yesterday

Maximum temperature yesterday: 75 °F (at 3:53 PM)
Minimum temperature yesterday: 42 °F (at 4:53 AM)
Average temperature yesterday: 58 °F

Past Weeks' High & Low Weather Summary

 TemperatureHumidityPressure
High85 °F (Feb 19, 2:53 PM)97% (Mar 1, 9:53 PM)30.30 "Hg (Mar 1, 9:53 PM)
Low42 °F (Mar 5, 4:53 AM)13% (Feb 25, 3:53 PM)29.61 "Hg (Feb 27, 2:53 PM)
Average62 °F49%29.92 "Hg
* Reported Feb 19 10:53 AM — Mar 6 10:53 AM, Mexicali, Weather by CustomWeather, © 2015

Note: Actual official high and low records may vary slightly from our data, if they occured in-between our weather recording intervals... More about our weather records

Advertising

Mexicali weather history for previous 24 hours

 ConditionsComfort  
Time TempWeatherWind HumidityBarometerVisibility
10:53 AM
Fri, Mar 6
77 °FSunny.14 mph16%30.10 "Hg10 mi
9:53 AM73 °FSunny.9 mph26%30.12 "Hg10 mi
8:53 AM68 °FSunny.9 mph35%30.14 "Hg10 mi
7:53 AM58 °FSunny.3 mph51%30.14 "Hg10 mi
6:53 AM47 °FSunny.No wind56%30.13 "Hg10 mi
5:53 AM44 °FClear.5 mph63%30.11 "Hg10 mi
4:53 AM45 °FClear.3 mph63%30.11 "Hg10 mi
3:53 AM47 °FClear.No wind59%30.11 "Hg10 mi
2:53 AM48 °FClear.6 mph56%30.11 "Hg10 mi
1:53 AM47 °FClear.7 mph64%30.13 "Hg10 mi
12:53 AM49 °FClear.10 mph59%30.14 "Hg10 mi
11:53 PM
Thu, Mar 5
50 °FClear.10 mph59%30.16 "Hg10 mi
10:53 PM52 °FClear.7 mph55%30.16 "Hg10 mi
9:53 PM53 °FClear.7 mph51%30.17 "Hg10 mi
8:53 PM55 °FClear.6 mph45%30.17 "Hg10 mi
7:53 PM59 °FClear.5 mph38%30.17 "Hg10 mi
6:53 PM61 °FClear.3 mph39%30.16 "Hg10 mi
5:53 PM66 °FClear.3 mph32%30.16 "Hg10 mi
4:53 PM72 °FSunny.6 mph19%30.16 "Hg10 mi
3:53 PM75 °FSunny.5 mph18%30.17 "Hg10 mi
2:53 PM73 °FSunny.5 mph22%30.18 "Hg10 mi
1:53 PM73 °FSunny.6 mph22%30.20 "Hg10 mi
12:53 PM73 °FSunny.7 mph19%30.23 "Hg10 mi
Weather by CustomWeather, © 2015

See weather overviewHow to use our weather pages